SCP
0 0 0 0 0 0 0 0 0 0 0 0 0 0 0 0 0 0 0 0 0 0 0 0 0 0 0 0 0 0 0 0 0 1 0 0 0 0 0 0 0 0 0 0 0 0 0 0 0 0 0 0 -0 0
0 0 0 0 0 0 0 0 0 0 0 0 0 0 0 0 0 0 0 0 0 0 0 0 0 0 0 0 0 0 0 0 0 0 0 1 1 1 0 0 0 0 0 0 0 -0 0 0 0 0 0 0 0 0
0 0 0 0 0 0 0 0 0 0 0 0 0 0 0 0 0 0 0 0 0 0 0 0 0 0 0 0 0 0 0 0 0 0 0 0 1 1 1 0 0 0 0 0 0 0 0 0 0 0 0 0 0 0
0 0 0 0 0 0 0 -0 0 0 0 0 0 0 0 0 0 0 0 0 0 0 0 0 0 0 0 0 0 0 0 0 0 0 0 0 1 1 2 1 1 1 0 0 1 0 0 0 0 0 0 0 0 -0
0 -0 -0 -0 -0 -0 0 0 0 0 0 0 0 0 0 0 0 0 0 0 0 0 0 0 0 0 0 0 0 0 0 0 0 0 0 0 0 1 1 1 1 0 0 0 0 0 1 1 0 0 0 0 0 -0
-0 -0 0 0 -0 0 0 0 0 0 0 0 0 0 0 0 0 0 0 0 0 0 0 0 0 0 0 0 0 0 0 0 0 0 0 0 0 0 1 1 1 0 1 1 2 1 1 0 0 0 0 0 0 -0
-0 0 0 0 -0 0 0 0 0 0 0 0 0 0 0 0 0 0 0 0 0 0 0 0 0 0 0 0 0 0 0 0 0 0 0 0 0 0 1 1 0 0 0 0 0 0 0 1 1 1 0 0 0 0
0 0 0 0 0 0 -0 0 0 0 0 0 0 0 0 0 0 0 0 0 0 0 0 0 0 0 0 0 0 0 0 0 0 0 0 0 0 0 1 1 1 0 0 0 0 0 1 1 0 1 0 0 0 0
0 -0 0 0 0 0 0 0 -0 0 0 0 0 0 0 0 0 0 0 0 0 0 0 0 0 0 0 0 0 0 0 0 0 0 0 0 1 1 1 1 0 0 1 1 1 1 0 0 1 0 0 0 0 0
0 0 0 0 0 -0 0 -0 -0 0 0 0 0 0 0 0 0 0 0 0 0 0 0 0 0 0 0 0 0 1 1 1 0 0 0 0 1 1 0 0 1 1 1 0 1 1 1 0 0 0 0 0 0 0
0 0 0 -0 -0 -0 0 -0 -0 -0 0 0 0 0 0 0 0 0 0 0 0 0 0 0 0 0 0 1 1 1 1 1 1 1 0 0 1 1 0 1 1 1 1 1 0 0 0 0 0 0 0 0 0 0
0 0 0 -0 0 -0 -0 -0 -0 0 0 0 0 0 0 0 0 0 0 0 0 0 0 0 0 0 0 1 1 1 0 1 0 1 0 1 1 1 0 1 1 2 1 1 1 0 0 0 0 0 0 0 0 0
0 0 0 0 0 -0 -0 -0 0 0 0 0 0 0 0 0 0 0 0 0 0 0 0 0 0 0 0 1 1 1 0 0 0 0 0 1 2 2 2 1 1 1 1 0 0 0 0 0 0 0 0 0 0 0
-0 -0 0 0 0 0 -0 0 0 0 0 0 0 0 0 0 0 0 0 0 0 0 0 0 0 0 1 1 1 0 0 0 0 0 0 1 2 2 3 1 1 0 0 0 0 0 0 0 0 0 0 0 0 0
0 -0 -0 0 0 0 0 -0 -0 0 0 0 -0 0 0 0 0 0 0 -0 0 0 0 1 1 1 1 1 1 1 0 0 -0 -0 0 1 2 2 1 1 1 0 0 0 0 0 0 0 0 0 0 0 0 0
0 0 0 0 0 0 0 0 -0 -0 -0 0 0 0 0 0 0 0 0 0 0 0 0 1 0 1 0 1 0 0 0 0 -0 0 0 2 2 1 1 2 1 0 0 0 0 0 0 0 0 0 0 0 0 0
0 0 0 0 -0 0 0 -0 -0 -0 -0 0 0 0 0 0 0 0 0 0 0 0 0 1 0 0 0 0 0 -0 0 0 0 0 0 1 1 1 1 0 1 1 1 0 0 0 0 0 0 0 0 0 0 0
0 0 -0 -0 -0 0 -0 -0 -0 0 0 0 0 0 0 0 0 0 0 0 0 0 0 0 0 0 0 0 0 0 -0 0 0 0 0 1 2 2 1 0 0 0 0 0 0 0 0 0 0 0 0 0 0 0
0 0 -0 -0 -0 0 -0 0 0 0 0 0 0 0 0 0 0 0 0 0 0 0 0 0 0 0 -0 0 0 -0 -0 0 0 0 1 1 1 1 1 1 0 0 0 0 0 0 0 0 0 0 0 0 0 0
0 0 0 0 0 0 -0 -0 -0 0 -0 -0 -0 -0 -0 -0 -0 0 0 0 0 0 0 0 -0 0 0 0 -0 0 0 0 0 0 1 1 1 1 0 0 0 0 0 0 0 0 0 0 0 0 0 0 0 0
0 0 0 0 0 0 0 0 0 0 0 0 -0 -0 0 0 0 0 0 0 0 0 0 0 -0 0 0 0 0 0 0 0 0 1 1 0 0 0 0 0 0 0 0 0 0 0 0 0 0 0 0 0 0 0
0 0 0 0 0 0 0 0 0 0 0 0 0 0 0 0 0 0 0 0 0 -0 -0 0 0 0 0 0 0 0 0 0 0 0 0 0 0 0 0 0 0 0 0 0 0 0 0 0 0 0 0 0 0 0
0 0 0 0 0 0 0 0 0 0 0 0 0 0 0 0 0 0 0 0 0 0 0 -0 0 0 0 0 0 0 0 0 0 0 0 0 0 0 0 0 0 0 0 0 0 0 0 0 0 0 0 0 0 0
0 0 0 0 0 0 0 0 0 0 0 0 0 0 0 0 0 0 0 0 0 0 0 0 0 0 0 0 0 0 0 0 0 0 0 0 0 0 0 0 0 0 0 0 0 0 0 0 0 0 0 0 0 0
0 0 0 0 0 0 0 0 0 0 0 0 0 0 0 0 0 0 0 0 0 0 0 0 0 0 0 0 0 0 0 0 0 0 0 0 0 0 0 0 0 0 0 0 0 0 0 0 0 0 0 0 0 0
0 0 0 0 0 0 0 0 0 0 0 0 0 0 0 0 0 0 0 0 0 0 0 0 0 0 0 0 0 0 0 0 0 0 0 0 0 0 0 0 0 0 0 0 0 0 0 0 0 0 0 0 0 0
0 0 0 0 0 0 0 0 0 0 0 0 0 0 0 0 0 0 0 0 0 0 0 0 0 0 0 0 0 0 0 0 0 0 0 0 0 0 0 0 0 0 0 0 0 0 0 0 0 0 0 0 0 0
-0 -0 0 0 0 0 0 0 0 0 0 0 0 0 0 0 0 0 0 0 0 0 0 0 0 0 0 0 0 0 0 0 0 0 0 0 0 0 0 0 0 0 0 0 0 0 0 0 0 0 0 0 0 0
-0 0 0 -0 -0 -0 0 0 0 0 0 0 0 0 0 0 0 0 0 0 0 0 0 0 0 0 0 0 0 0 0 0 0 0 0 0 0 0 0 0 0 0 0 0 0 0 0 0 0 0 0 0 0 0
-0 -0 -0 -0 -0 -0 0 -0 0 0 0 0 0 0 0 0 0 0 0 -0 0 0 0 0 0 0 0 0 0 0 0 0 0 0 0 0 0 0 0 0 0 0 0 0 0 0 0 0 0 0 0 0 0 0
0 -0 0 -0 -0 0 -0 -0 -0 -0 -0 0 0 0 0 -0 0 0 0 0 0 0 -0 -0 -0 -0 0 0 0 0 0 0 0 0 0 0 0 0 0 0 0 0 0 0 0 0 0 0 0 0 0 0 0 0
0 0 -0 -0 -0 -0 -0 -0 -0 -0 -0 -0 -0 -0 -0 -0 -0 -0 0 0 0 0 0 0 0 0 0 -0 -0 -0 -0 0 0 0 0 0 0 0 0 0 0 0 0 0 0 0 0 0 0 0 0 0 0 0
0 0 0 0 0 0 0 0 0 0 0 -0 0 0 0 0 0 0 0 0 0 0 -0 -0 -0 -0 -0 -0 -0 0 0 0 0 0 0 0 0 0 0 0 0 0 0 0 0 0 0 0 0 0 0 0 0 0
Wind_Speed_500mb
44 44 45 41 43 41 38 29 24 22 24 27 25 25 26 21 23 17 10 19 19 21 34 22 22 24 17 16 14 12 13 11 12 13 8 10 11 10 9 4 19 19 17 14 16 19 18 24 17 10 11 14 13 12
49 49 42 42 38 31 28 25 26 24 25 24 29 30 24 26 28 24 16 15 20 29 23 20 33 42 40 27 13 11 13 12 9 9 4 8 12 6 11 13 9 10 7 12 16 18 11 28 7 5 8 13 14 23
48 39 41 41 35 33 34 34 32 31 33 32 30 30 27 27 32 31 18 17 13 24 45 48 46 41 49 48 34 14 10 3 7 13 11 6 10 9 12 11 8 6 7 9 12 8 16 23 10 8 13 19 17 27
41 42 43 39 36 36 35 36 36 37 36 35 33 29 32 32 33 34 30 20 20 12 13 9 9 21 30 42 56 56 35 8 16 23 15 8 8 4 3 8 16 2 19 16 7 12 19 16 17 28 32 31 32 33
42 42 40 37 37 37 39 36 35 33 30 30 28 33 34 28 34 32 27 25 31 19 11 24 40 36 44 32 43 52 52 42 29 17 11 10 11 10 11 6 17 21 18 18 17 36 4 36 32 33 35 34 34 39
37 36 36 35 35 39 38 35 30 28 26 28 31 31 32 30 31 29 10 28 37 31 11 9 12 16 19 37 43 36 40 34 23 10 14 10 13 10 9 10 6 31 15 2 11 39 36 43 41 39 43 39 40 41
36 36 38 39 37 35 35 31 27 29 30 26 30 26 27 36 38 26 4 9 33 35 8 11 9 11 15 25 41 32 32 23 18 15 16 15 4 7 9 14 10 21 18 15 43 63 53 46 48 44 45 44 45 43
27 27 27 22 20 21 22 26 30 29 32 32 31 26 28 30 33 33 16 6 25 29 10 7 8 10 29 32 24 28 24 20 21 16 11 12 9 11 9 6 5 14 26 43 53 45 49 53 48 46 43 41 41 38
17 18 17 18 19 21 22 22 22 27 35 36 32 34 38 33 23 23 32 20 24 15 7 10 7 7 27 29 23 32 24 14 17 15 15 11 10 13 0 7 17 29 28 46 40 50 59 51 47 42 39 36 38 35
12 19 19 16 19 20 22 22 27 32 40 39 49 18 12 20 18 23 17 11 19 14 13 12 21 8 14 30 25 24 17 10 11 19 17 12 16 9 8 17 28 15 40 51 58 50 51 48 44 40 35 34 32 30
12 17 17 6 8 7 6 21 36 43 40 54 15 10 17 32 19 14 12 13 16 12 20 26 40 15 9 18 15 17 9 9 8 14 12 14 15 18 28 25 27 36 40 36 41 45 40 43 42 39 35 30 27 23
12 7 13 15 2 9 18 28 39 48 41 23 14 24 33 14 11 8 8 12 12 13 23 32 35 30 13 15 15 11 9 10 11 6 10 13 13 52 48 43 38 26 28 40 41 46 42 37 33 32 29 26 23 21
6 6 6 11 23 22 22 32 52 40 30 16 7 4 10 13 12 10 11 8 9 15 19 25 22 18 17 19 11 8 14 7 5 4 8 13 41 56 62 49 41 31 37 41 41 39 37 34 30 28 28 25 23 22
3 4 4 5 14 21 28 34 34 22 8 4 7 7 11 11 13 15 17 13 20 12 23 32 32 15 18 14 7 11 5 9 9 10 12 16 46 48 67 66 54 48 40 41 40 37 35 34 31 28 25 24 23 19
6 3 6 6 16 20 23 30 27 13 4 3 8 9 15 24 19 15 19 10 17 11 22 20 14 14 13 11 7 7 12 11 13 15 9 15 61 58 64 77 69 63 46 41 39 37 34 31 28 26 23 22 20 20
6 8 12 15 17 21 26 27 24 16 5 7 13 11 24 16 21 24 21 23 21 19 19 12 9 10 11 7 12 8 8 11 12 8 34 36 59 60 62 66 80 72 54 42 38 36 32 27 25 24 24 22 21 20
18 9 9 21 23 21 27 30 21 11 12 11 16 31 38 27 19 16 18 21 20 23 10 8 12 11 7 8 8 15 7 9 12 5 19 47 71 69 64 65 69 61 55 44 39 33 29 24 22 23 24 22 20 18
29 15 11 24 28 27 31 26 10 15 18 25 20 25 27 23 17 14 18 19 21 18 12 3 3 9 8 6 9 3 1 5 6 19 31 48 59 69 64 67 62 52 47 41 34 29 25 22 21 21 21 23 20 18
29 25 25 29 35 30 17 18 19 11 20 22 32 36 27 22 17 21 19 23 26 20 6 4 7 7 4 4 13 16 6 13 25 34 44 46 56 64 60 52 46 42 37 33 30 25 22 20 20 22 23 23 18 17
39 29 29 37 46 28 12 10 20 12 12 11 17 26 17 6 10 12 16 20 21 12 11 7 3 5 4 8 2 10 22 37 47 56 54 50 50 52 49 44 38 35 30 28 26 27 23 20 18 19 19 20 19 16
32 8 2 42 46 24 10 9 15 15 12 12 15 6 7 18 11 8 5 23 7 3 3 3 7 13 15 16 22 27 28 29 39 47 58 58 46 42 35 29 29 25 25 24 23 21 21 17 17 16 18 17 18 20
23 14 22 41 12 26 21 24 18 2 11 5 7 8 9 7 7 5 5 12 6 4 4 7 8 12 13 29 39 31 35 44 48 48 46 44 38 33 30 27 27 24 22 19 18 17 17 16 18 18 20 21 21 19
15 5 4 13 16 23 12 9 1 6 5 3 8 7 5 7 5 5 7 5 3 8 6 11 21 6 29 42 37 32 32 36 37 37 34 33 31 29 27 23 20 20 18 16 17 16 19 23 27 23 22 21 19 15
10 3 3 5 7 8 3 4 5 9 7 4 3 6 4 5 5 7 4 6 14 8 12 22 15 31 46 41 31 29 28 30 32 30 27 28 27 23 20 18 15 14 15 17 19 21 23 23 24 21 20 19 17 19
4 5 8 9 8 11 10 8 8 4 6 4 6 7 4 5 6 7 6 15 25 22 12 20 27 34 37 32 25 25 23 20 22 23 19 18 21 20 18 17 16 15 17 18 19 21 21 20 18 15 14 17 19 20
8 12 14 17 12 10 11 7 9 12 7 7 9 7 4 5 7 5 3 11 16 18 27 33 35 36 37 30 28 24 23 21 22 23 21 18 16 15 16 16 16 14 15 11 14 16 16 16 15 17 18 21 27 26
9 12 11 10 10 9 4 6 4 6 8 7 5 5 5 7 8 5 6 14 13 15 24 28 26 23 25 26 26 25 23 22 20 24 24 24 24 21 17 15 14 13 14 12 13 17 18 19 19 19 18 21 27 23
10 16 14 21 13 17 12 9 9 10 7 7 2 8 6 7 7 6 9 15 19 21 23 25 23 23 24 24 23 23 24 25 27 26 27 25 22 19 19 17 16 14 12 13 12 14 15 15 17 19 19 19 20 23
9 19 14 21 14 14 18 17 17 13 11 7 5 7 9 15 25 28 25 23 26 27 25 21 24 24 27 28 25 24 24 21 20 19 16 16 12 7 7 6 5 6 6 6 11 18 20 18 17 16 17 18 20 22
17 15 10 20 16 17 21 22 29 24 19 21 32 41 35 27 32 29 28 27 25 26 27 25 25 21 15 13 13 12 9 8 6 3 3 4 6 5 4 5 5 6 8 10 14 19 26 31 29 28 25 24 25 26
9 11 18 21 18 23 22 25 30 36 40 40 37 41 33 26 20 16 14 8 8 9 11 13 15 14 13 11 9 7 4 1 5 7 7 4 7 11 16 19 19 19 17 18 21 25 30 30 33 32 32 33 32 29
14 18 31 26 24 16 18 20 22 24 23 24 24 22 16 14 10 10 7 8 5 5 8 13 11 10 11 10 12 14 15 13 10 8 6 3 4 6 7 7 6 6 7 9 10 13 16 20 23 24 24 24 24 24
33 32 26 17 8 6 7 5 7 9 10 10 8 6 4 6 6 6 6 9 8 6 8 12 14 14 13 15 15 14 12 11 12 15 15 9 6 4 4 5 4 2 1 5 8 9 9 11 14 15 18 20 22 23
Wind_Direction_500mb
285 282 287 282 281 284 277 270 271 265 257 255 244 255 251 245 246 248 248 219 212 257 265 256 246 244 242 242 263 26 272 207 247 245 255 216 268 164 229 137 185 184 190 208 232 225 234 162 158 239 63 99 143 175
285 284 277 274 275 274 269 273 275 272 266 261 257 252 247 234 234 232 235 232 229 242 254 272 251 245 243 244 287 276 316 309 1 275 222 305 252 216 243 196 184 227 248 189 238 204 136 171 51 104 93 117 137 154
286 278 275 274 269 269 267 265 261 262 263 258 257 248 238 227 225 227 221 223 238 265 282 260 259 256 241 233 226 252 224 291 97 8 314 292 272 297 215 227 165 208 239 199 184 144 158 163 160 132 119 108 110 147
279 278 274 272 270 266 267 266 264 262 259 255 245 242 228 230 219 219 218 225 226 266 272 267 267 239 236 225 223 223 237 226 322 319 287 272 275 336 297 11 266 42 173 170 115 136 148 151 140 131 120 113 109 120
279 277 275 275 271 263 268 261 261 254 255 242 243 225 229 227 210 214 221 230 218 227 302 299 294 265 235 221 217 219 229 244 269 285 231 240 270 286 228 281 237 190 182 195 202 171 199 146 145 135 124 120 118 115
284 279 276 274 279 269 269 259 250 249 245 238 234 228 222 204 197 194 235 235 216 216 284 289 298 264 222 209 204 206 215 220 219 235 255 247 263 277 277 233 231 189 192 238 136 150 139 134 133 131 123 122 114 105
290 280 276 272 270 269 262 247 250 242 238 234 215 214 208 196 205 171 234 189 197 198 241 276 247 199 203 184 189 193 195 198 197 242 238 258 241 254 267 253 133 180 175 157 146 133 126 130 128 125 120 111 105 101
288 285 284 269 256 244 248 253 248 238 224 211 202 201 193 190 189 206 208 61 186 184 245 270 261 225 176 164 164 178 180 203 208 238 219 229 187 228 257 330 220 176 150 147 148 141 132 131 128 123 119 117 109 106
322 319 301 281 253 258 263 251 237 212 196 189 188 180 151 166 193 206 221 236 183 199 263 243 236 161 187 189 164 179 179 193 192 224 221 205 190 220 250 282 175 156 152 152 137 139 132 132 131 130 129 123 117 115
344 337 319 284 266 268 270 232 193 183 178 177 162 138 184 191 183 175 154 189 195 219 233 248 262 252 219 192 177 170 182 198 203 209 169 224 232 226 215 166 154 167 149 148 139 139 135 132 134 132 125 119 117 115
343 358 2 327 264 259 197 170 174 168 169 154 159 183 159 160 145 172 188 186 190 216 215 235 234 224 264 209 182 195 184 179 222 171 215 201 223 174 168 158 140 142 143 144 142 137 139 137 135 127 119 116 115 116
340 352 359 7 281 187 161 161 157 167 161 154 153 133 135 166 191 192 207 196 198 220 199 210 207 204 241 214 223 191 186 196 192 319 214 217 174 159 157 142 132 137 132 138 138 131 132 130 128 125 124 123 119 115
13 351 346 38 127 113 127 175 155 150 149 160 134 149 193 181 200 217 202 205 220 201 188 182 180 182 214 215 221 192 202 201 146 235 230 223 148 163 147 137 140 133 139 134 129 129 129 123 122 125 126 125 122 118
11 70 59 202 148 148 146 152 151 146 136 156 148 256 219 189 212 209 224 201 212 216 188 192 172 176 202 201 188 187 192 161 168 188 237 159 172 170 143 155 149 143 146 140 136 133 128 127 127 127 128 132 133 126
313 262 194 139 171 163 163 173 178 190 193 237 200 234 226 225 236 248 250 259 233 234 180 178 189 193 190 203 203 164 179 207 214 196 233 185 174 171 158 152 152 146 154 150 143 138 135 135 134 132 135 136 139 128
330 267 216 185 177 175 178 174 190 209 237 254 236 259 260 267 247 227 224 232 214 213 190 194 174 198 198 189 185 199 234 213 205 190 229 189 168 167 164 160 159 154 154 153 150 144 139 141 141 142 139 143 139 139
317 267 206 198 194 187 174 189 193 212 227 228 244 241 254 277 275 236 213 206 190 189 201 198 205 181 136 192 218 157 270 349 333 246 174 171 161 155 154 144 148 147 149 155 149 148 145 148 153 152 156 153 152 149
272 259 251 203 189 182 192 204 220 230 231 237 253 256 240 236 254 261 231 194 183 195 203 237 176 200 197 237 186 74 72 274 201 139 142 147 148 144 146 144 145 148 151 149 148 145 151 164 166 173 172 162 157 156
301 283 235 211 200 177 186 209 211 255 241 251 246 256 256 263 271 265 216 204 202 207 220 217 249 214 170 358 13 335 266 202 147 132 138 140 137 137 140 139 141 143 146 147 149 155 161 167 178 178 174 172 178 174
316 296 259 214 201 182 206 232 195 234 255 228 238 238 233 218 198 227 221 178 173 175 207 221 256 349 308 299 333 239 189 143 132 130 127 129 131 131 135 142 145 147 146 146 149 145 144 143 150 157 170 181 184 183
338 359 199 170 194 191 239 251 223 231 229 232 173 87 80 114 112 101 101 137 106 74 221 297 276 279 259 193 160 147 142 150 142 137 133 128 131 138 138 142 141 150 154 156 156 163 160 174 177 176 167 172 173 165
333 325 154 164 159 187 239 227 234 238 163 44 90 88 80 73 74 47 57 56 44 321 239 245 218 166 136 143 152 142 117 124 124 123 124 119 125 132 137 145 149 152 155 161 169 175 183 181 170 167 164 161 152 154
338 335 230 201 200 203 250 267 204 68 104 333 30 49 44 63 82 73 75 67 67 331 253 199 202 160 137 127 113 111 115 118 118 118 123 128 133 139 141 145 155 160 165 169 174 181 177 175 157 159 162 156 165 167
352 312 262 265 252 270 11 59 95 106 101 102 69 95 48 29 72 66 80 10 19 79 166 195 210 112 105 103 103 106 111 119 118 118 124 129 129 128 135 141 149 157 171 166 164 166 158 161 167 166 171 174 178 172
308 7 328 329 359 357 21 49 53 85 50 59 103 106 96 69 44 44 18 353 16 49 85 101 107 116 112 110 110 114 111 122 129 125 122 133 134 131 132 137 143 146 149 152 160 167 172 175 182 181 182 183 176 164
51 22 13 357 7 10 14 28 28 21 31 47 57 84 126 108 73 53 356 349 28 70 103 105 102 100 95 96 106 110 111 118 123 125 120 129 139 144 150 154 155 156 149 164 176 183 183 178 172 165 168 169 165 163
32 11 346 350 343 343 72 58 48 47 51 54 44 38 44 65 65 65 22 35 59 81 102 104 89 98 101 105 106 105 105 108 117 123 116 113 116 119 121 131 136 153 158 153 159 164 168 167 169 171 175 174 178 180
8 1 358 356 25 21 28 22 30 34 42 26 356 44 53 44 84 91 77 86 86 97 107 112 105 100 104 104 106 105 108 114 115 113 113 109 107 108 113 118 122 129 144 158 165 168 170 171 178 181 184 189 199 203
19 352 350 16 20 31 28 10 10 12 5 359 61 71 80 86 117 115 108 91 84 91 96 102 114 114 114 113 108 106 106 110 117 127 129 128 132 125 148 137 137 162 174 189 196 183 195 196 199 204 210 216 223 227
39 23 54 40 30 33 33 39 49 55 67 82 102 105 101 110 122 115 107 92 86 88 91 100 109 119 116 126 125 121 111 96 95 106 175 182 182 197 215 226 226 229 227 229 228 238 233 225 225 224 230 233 238 242
29 58 74 87 84 74 68 74 75 77 82 88 97 100 107 120 126 131 137 119 82 100 123 118 108 104 103 112 127 136 130 165 244 248 236 248 259 259 257 260 262 265 266 261 255 248 242 244 235 241 243 244 248 246
74 89 109 111 106 99 97 80 82 81 88 90 98 105 115 122 123 174 206 193 153 143 158 165 158 131 122 115 113 119 109 97 74 55 38 28 333 308 333 333 311 285 260 245 233 230 228 222 230 233 236 240 243 243
100 108 115 113 113 101 84 101 94 103 102 102 110 107 70 38 87 145 178 168 173 160 162 161 168 159 153 138 138 126 108 86 58 44 33 14 348 331 37 11 8 18 245 220 224 226 229 230 237 240 245 248 246 250
Wind_Speed_850mb
44 44 45 41 43 41 38 29 24 22 24 27 25 25 26 21 23 17 10 19 19 21 34 22 22 24 17 16 14 12 13 11 12 13 8 10 11 10 9 4 19 19 17 14 16 19 18 24 17 10 11 14 13 12
49 49 42 42 38 31 28 25 26 24 25 24 29 30 24 26 28 24 16 15 20 29 23 20 33 42 40 27 13 11 13 12 9 9 4 8 12 6 11 13 9 10 7 12 16 18 11 28 7 5 8 13 14 23
48 39 41 41 35 33 34 34 32 31 33 32 30 30 27 27 32 31 18 17 13 24 45 48 46 41 49 48 34 14 10 3 7 13 11 6 10 9 12 11 8 6 7 9 12 8 16 23 10 8 13 19 17 27
41 42 43 39 36 36 35 36 36 37 36 35 33 29 32 32 33 34 30 20 20 12 13 9 9 21 30 42 56 56 35 8 16 23 15 8 8 4 3 8 16 2 19 16 7 12 19 16 17 28 32 31 32 33
42 42 40 37 37 37 39 36 35 33 30 30 28 33 34 28 34 32 27 25 31 19 11 24 40 36 44 32 43 52 52 42 29 17 11 10 11 10 11 6 17 21 18 18 17 36 4 36 32 33 35 34 34 39
37 36 36 35 35 39 38 35 30 28 26 28 31 31 32 30 31 29 10 28 37 31 11 9 12 16 19 37 43 36 40 34 23 10 14 10 13 10 9 10 6 31 15 2 11 39 36 43 41 39 43 39 40 41
36 36 38 39 37 35 35 31 27 29 30 26 30 26 27 36 38 26 4 9 33 35 8 11 9 11 15 25 41 32 32 23 18 15 16 15 4 7 9 14 10 21 18 15 43 63 53 46 48 44 45 44 45 43
27 27 27 22 20 21 22 26 30 29 32 32 31 26 28 30 33 33 16 6 25 29 10 7 8 10 29 32 24 28 24 20 21 16 11 12 9 11 9 6 5 14 26 43 53 45 49 53 48 46 43 41 41 38
17 18 17 18 19 21 22 22 22 27 35 36 32 34 38 33 23 23 32 20 24 15 7 10 7 7 27 29 23 32 24 14 17 15 15 11 10 13 0 7 17 29 28 46 40 50 59 51 47 42 39 36 38 35
12 19 19 16 19 20 22 22 27 32 40 39 49 18 12 20 18 23 17 11 19 14 13 12 21 8 14 30 25 24 17 10 11 19 17 12 16 9 8 17 28 15 40 51 58 50 51 48 44 40 35 34 32 30
12 17 17 6 8 7 6 21 36 43 40 54 15 10 17 32 19 14 12 13 16 12 20 26 40 15 9 18 15 17 9 9 8 14 12 14 15 18 28 25 27 36 40 36 41 45 40 43 42 39 35 30 27 23
12 7 13 15 2 9 18 28 39 48 41 23 14 24 33 14 11 8 8 12 12 13 23 32 35 30 13 15 15 11 9 10 11 6 10 13 13 52 48 43 38 26 28 40 41 46 42 37 33 32 29 26 23 21
6 6 6 11 23 22 22 32 52 40 30 16 7 4 10 13 12 10 11 8 9 15 19 25 22 18 17 19 11 8 14 7 5 4 8 13 41 56 62 49 41 31 37 41 41 39 37 34 30 28 28 25 23 22
3 4 4 5 14 21 28 34 34 22 8 4 7 7 11 11 13 15 17 13 20 12 23 32 32 15 18 14 7 11 5 9 9 10 12 16 46 48 67 66 54 48 40 41 40 37 35 34 31 28 25 24 23 19
6 3 6 6 16 20 23 30 27 13 4 3 8 9 15 24 19 15 19 10 17 11 22 20 14 14 13 11 7 7 12 11 13 15 9 15 61 58 64 77 69 63 46 41 39 37 34 31 28 26 23 22 20 20
6 8 12 15 17 21 26 27 24 16 5 7 13 11 24 16 21 24 21 23 21 19 19 12 9 10 11 7 12 8 8 11 12 8 34 36 59 60 62 66 80 72 54 42 38 36 32 27 25 24 24 22 21 20
18 9 9 21 23 21 27 30 21 11 12 11 16 31 38 27 19 16 18 21 20 23 10 8 12 11 7 8 8 15 7 9 12 5 19 47 71 69 64 65 69 61 55 44 39 33 29 24 22 23 24 22 20 18
29 15 11 24 28 27 31 26 10 15 18 25 20 25 27 23 17 14 18 19 21 18 12 3 3 9 8 6 9 3 1 5 6 19 31 48 59 69 64 67 62 52 47 41 34 29 25 22 21 21 21 23 20 18
29 25 25 29 35 30 17 18 19 11 20 22 32 36 27 22 17 21 19 23 26 20 6 4 7 7 4 4 13 16 6 13 25 34 44 46 56 64 60 52 46 42 37 33 30 25 22 20 20 22 23 23 18 17
39 29 29 37 46 28 12 10 20 12 12 11 17 26 17 6 10 12 16 20 21 12 11 7 3 5 4 8 2 10 22 37 47 56 54 50 50 52 49 44 38 35 30 28 26 27 23 20 18 19 19 20 19 16
32 8 2 42 46 24 10 9 15 15 12 12 15 6 7 18 11 8 5 23 7 3 3 3 7 13 15 16 22 27 28 29 39 47 58 58 46 42 35 29 29 25 25 24 23 21 21 17 17 16 18 17 18 20
23 14 22 41 12 26 21 24 18 2 11 5 7 8 9 7 7 5 5 12 6 4 4 7 8 12 13 29 39 31 35 44 48 48 46 44 38 33 30 27 27 24 22 19 18 17 17 16 18 18 20 21 21 19
15 5 4 13 16 23 12 9 1 6 5 3 8 7 5 7 5 5 7 5 3 8 6 11 21 6 29 42 37 32 32 36 37 37 34 33 31 29 27 23 20 20 18 16 17 16 19 23 27 23 22 21 19 15
10 3 3 5 7 8 3 4 5 9 7 4 3 6 4 5 5 7 4 6 14 8 12 22 15 31 46 41 31 29 28 30 32 30 27 28 27 23 20 18 15 14 15 17 19 21 23 23 24 21 20 19 17 19
4 5 8 9 8 11 10 8 8 4 6 4 6 7 4 5 6 7 6 15 25 22 12 20 27 34 37 32 25 25 23 20 22 23 19 18 21 20 18 17 16 15 17 18 19 21 21 20 18 15 14 17 19 20
8 12 14 17 12 10 11 7 9 12 7 7 9 7 4 5 7 5 3 11 16 18 27 33 35 36 37 30 28 24 23 21 22 23 21 18 16 15 16 16 16 14 15 11 14 16 16 16 15 17 18 21 27 26
9 12 11 10 10 9 4 6 4 6 8 7 5 5 5 7 8 5 6 14 13 15 24 28 26 23 25 26 26 25 23 22 20 24 24 24 24 21 17 15 14 13 14 12 13 17 18 19 19 19 18 21 27 23
10 16 14 21 13 17 12 9 9 10 7 7 2 8 6 7 7 6 9 15 19 21 23 25 23 23 24 24 23 23 24 25 27 26 27 25 22 19 19 17 16 14 12 13 12 14 15 15 17 19 19 19 20 23
9 19 14 21 14 14 18 17 17 13 11 7 5 7 9 15 25 28 25 23 26 27 25 21 24 24 27 28 25 24 24 21 20 19 16 16 12 7 7 6 5 6 6 6 11 18 20 18 17 16 17 18 20 22
17 15 10 20 16 17 21 22 29 24 19 21 32 41 35 27 32 29 28 27 25 26 27 25 25 21 15 13 13 12 9 8 6 3 3 4 6 5 4 5 5 6 8 10 14 19 26 31 29 28 25 24 25 26
9 11 18 21 18 23 22 25 30 36 40 40 37 41 33 26 20 16 14 8 8 9 11 13 15 14 13 11 9 7 4 1 5 7 7 4 7 11 16 19 19 19 17 18 21 25 30 30 33 32 32 33 32 29
14 18 31 26 24 16 18 20 22 24 23 24 24 22 16 14 10 10 7 8 5 5 8 13 11 10 11 10 12 14 15 13 10 8 6 3 4 6 7 7 6 6 7 9 10 13 16 20 23 24 24 24 24 24
33 32 26 17 8 6 7 5 7 9 10 10 8 6 4 6 6 6 6 9 8 6 8 12 14 14 13 15 15 14 12 11 12 15 15 9 6 4 4 5 4 2 1 5 8 9 9 11 14 15 18 20 22 23
Wind_Direction_850mb
285 282 287 282 281 284 277 270 271 265 257 255 244 255 251 245 246 248 248 219 212 257 265 256 246 244 242 242 263 26 272 207 247 245 255 216 268 164 229 137 185 184 190 208 232 225 234 162 158 239 63 99 143 175
285 284 277 274 275 274 269 273 275 272 266 261 257 252 247 234 234 232 235 232 229 242 254 272 251 245 243 244 287 276 316 309 1 275 222 305 252 216 243 196 184 227 248 189 238 204 136 171 51 104 93 117 137 154
286 278 275 274 269 269 267 265 261 262 263 258 257 248 238 227 225 227 221 223 238 265 282 260 259 256 241 233 226 252 224 291 97 8 314 292 272 297 215 227 165 208 239 199 184 144 158 163 160 132 119 108 110 147
279 278 274 272 270 266 267 266 264 262 259 255 245 242 228 230 219 219 218 225 226 266 272 267 267 239 236 225 223 223 237 226 322 319 287 272 275 336 297 11 266 42 173 170 115 136 148 151 140 131 120 113 109 120
279 277 275 275 271 263 268 261 261 254 255 242 243 225 229 227 210 214 221 230 218 227 302 299 294 265 235 221 217 219 229 244 269 285 231 240 270 286 228 281 237 190 182 195 202 171 199 146 145 135 124 120 118 115
284 279 276 274 279 269 269 259 250 249 245 238 234 228 222 204 197 194 235 235 216 216 284 289 298 264 222 209 204 206 215 220 219 235 255 247 263 277 277 233 231 189 192 238 136 150 139 134 133 131 123 122 114 105
290 280 276 272 270 269 262 247 250 242 238 234 215 214 208 196 205 171 234 189 197 198 241 276 247 199 203 184 189 193 195 198 197 242 238 258 241 254 267 253 133 180 175 157 146 133 126 130 128 125 120 111 105 101
288 285 284 269 256 244 248 253 248 238 224 211 202 201 193 190 189 206 208 61 186 184 245 270 261 225 176 164 164 178 180 203 208 238 219 229 187 228 257 330 220 176 150 147 148 141 132 131 128 123 119 117 109 106
322 319 301 281 253 258 263 251 237 212 196 189 188 180 151 166 193 206 221 236 183 199 263 243 236 161 187 189 164 179 179 193 192 224 221 205 190 220 250 282 175 156 152 152 137 139 132 132 131 130 129 123 117 115
344 337 319 284 266 268 270 232 193 183 178 177 162 138 184 191 183 175 154 189 195 219 233 248 262 252 219 192 177 170 182 198 203 209 169 224 232 226 215 166 154 167 149 148 139 139 135 132 134 132 125 119 117 115
343 358 2 327 264 259 197 170 174 168 169 154 159 183 159 160 145 172 188 186 190 216 215 235 234 224 264 209 182 195 184 179 222 171 215 201 223 174 168 158 140 142 143 144 142 137 139 137 135 127 119 116 115 116
340 352 359 7 281 187 161 161 157 167 161 154 153 133 135 166 191 192 207 196 198 220 199 210 207 204 241 214 223 191 186 196 192 319 214 217 174 159 157 142 132 137 132 138 138 131 132 130 128 125 124 123 119 115
13 351 346 38 127 113 127 175 155 150 149 160 134 149 193 181 200 217 202 205 220 201 188 182 180 182 214 215 221 192 202 201 146 235 230 223 148 163 147 137 140 133 139 134 129 129 129 123 122 125 126 125 122 118
11 70 59 202 148 148 146 152 151 146 136 156 148 256 219 189 212 209 224 201 212 216 188 192 172 176 202 201 188 187 192 161 168 188 237 159 172 170 143 155 149 143 146 140 136 133 128 127 127 127 128 132 133 126
313 262 194 139 171 163 163 173 178 190 193 237 200 234 226 225 236 248 250 259 233 234 180 178 189 193 190 203 203 164 179 207 214 196 233 185 174 171 158 152 152 146 154 150 143 138 135 135 134 132 135 136 139 128
330 267 216 185 177 175 178 174 190 209 237 254 236 259 260 267 247 227 224 232 214 213 190 194 174 198 198 189 185 199 234 213 205 190 229 189 168 167 164 160 159 154 154 153 150 144 139 141 141 142 139 143 139 139
317 267 206 198 194 187 174 189 193 212 227 228 244 241 254 277 275 236 213 206 190 189 201 198 205 181 136 192 218 157 270 349 333 246 174 171 161 155 154 144 148 147 149 155 149 148 145 148 153 152 156 153 152 149
272 259 251 203 189 182 192 204 220 230 231 237 253 256 240 236 254 261 231 194 183 195 203 237 176 200 197 237 186 74 72 274 201 139 142 147 148 144 146 144 145 148 151 149 148 145 151 164 166 173 172 162 157 156
301 283 235 211 200 177 186 209 211 255 241 251 246 256 256 263 271 265 216 204 202 207 220 217 249 214 170 358 13 335 266 202 147 132 138 140 137 137 140 139 141 143 146 147 149 155 161 167 178 178 174 172 178 174
316 296 259 214 201 182 206 232 195 234 255 228 238 238 233 218 198 227 221 178 173 175 207 221 256 349 308 299 333 239 189 143 132 130 127 129 131 131 135 142 145 147 146 146 149 145 144 143 150 157 170 181 184 183
338 359 199 170 194 191 239 251 223 231 229 232 173 87 80 114 112 101 101 137 106 74 221 297 276 279 259 193 160 147 142 150 142 137 133 128 131 138 138 142 141 150 154 156 156 163 160 174 177 176 167 172 173 165
333 325 154 164 159 187 239 227 234 238 163 44 90 88 80 73 74 47 57 56 44 321 239 245 218 166 136 143 152 142 117 124 124 123 124 119 125 132 137 145 149 152 155 161 169 175 183 181 170 167 164 161 152 154
338 335 230 201 200 203 250 267 204 68 104 333 30 49 44 63 82 73 75 67 67 331 253 199 202 160 137 127 113 111 115 118 118 118 123 128 133 139 141 145 155 160 165 169 174 181 177 175 157 159 162 156 165 167
352 312 262 265 252 270 11 59 95 106 101 102 69 95 48 29 72 66 80 10 19 79 166 195 210 112 105 103 103 106 111 119 118 118 124 129 129 128 135 141 149 157 171 166 164 166 158 161 167 166 171 174 178 172
308 7 328 329 359 357 21 49 53 85 50 59 103 106 96 69 44 44 18 353 16 49 85 101 107 116 112 110 110 114 111 122 129 125 122 133 134 131 132 137 143 146 149 152 160 167 172 175 182 181 182 183 176 164
51 22 13 357 7 10 14 28 28 21 31 47 57 84 126 108 73 53 356 349 28 70 103 105 102 100 95 96 106 110 111 118 123 125 120 129 139 144 150 154 155 156 149 164 176 183 183 178 172 165 168 169 165 163
32 11 346 350 343 343 72 58 48 47 51 54 44 38 44 65 65 65 22 35 59 81 102 104 89 98 101 105 106 105 105 108 117 123 116 113 116 119 121 131 136 153 158 153 159 164 168 167 169 171 175 174 178 180
8 1 358 356 25 21 28 22 30 34 42 26 356 44 53 44 84 91 77 86 86 97 107 112 105 100 104 104 106 105 108 114 115 113 113 109 107 108 113 118 122 129 144 158 165 168 170 171 178 181 184 189 199 203
19 352 350 16 20 31 28 10 10 12 5 359 61 71 80 86 117 115 108 91 84 91 96 102 114 114 114 113 108 106 106 110 117 127 129 128 132 125 148 137 137 162 174 189 196 183 195 196 199 204 210 216 223 227
39 23 54 40 30 33 33 39 49 55 67 82 102 105 101 110 122 115 107 92 86 88 91 100 109 119 116 126 125 121 111 96 95 106 175 182 182 197 215 226 226 229 227 229 228 238 233 225 225 224 230 233 238 242
29 58 74 87 84 74 68 74 75 77 82 88 97 100 107 120 126 131 137 119 82 100 123 118 108 104 103 112 127 136 130 165 244 248 236 248 259 259 257 260 262 265 266 261 255 248 242 244 235 241 243 244 248 246
74 89 109 111 106 99 97 80 82 81 88 90 98 105 115 122 123 174 206 193 153 143 158 165 158 131 122 115 113 119 109 97 74 55 38 28 333 308 333 333 311 285 260 245 233 230 228 222 230 233 236 240 243 243
100 108 115 113 113 101 84 101 94 103 102 102 110 107 70 38 87 145 178 168 173 160 162 161 168 159 153 138 138 126 108 86 58 44 33 14 348 331 37 11 8 18 245 220 224 226 229 230 237 240 245 248 246 250